TimeEDT,TemperatureF,Dew PointF,Humidity,Sea Level PressureIn,VisibilityMPH,Wind Direction,Wind SpeedMPH,Gust SpeedMPH,PrecipitationIn,Events,Conditions,WindDirDegrees,DateUTC
12:52 AM,52.0,51.1,97,30.23,8.0,Calm,Calm,-,N/A,,Clear,0,2013-08-17 04:52:00
1:52 AM,52.0,50.0,93,30.24,8.0,Calm,Calm,-,N/A,,Clear,0,2013-08-17 05:52:00
2:52 AM,51.1,48.9,92,30.25,10.0,Calm,Calm,-,N/A,,Clear,0,2013-08-17 06:52:00
3:52 AM,50.0,48.9,96,30.25,10.0,Calm,Calm,-,N/A,,Clear,0,2013-08-17 07:52:00
4:52 AM,50.0,48.0,93,30.26,10.0,Calm,Calm,-,N/A,,Clear,0,2013-08-17 08:52:00
5:52 AM,48.9,46.9,93,30.27,10.0,Calm,Calm,-,0.01,,Clear,0,2013-08-17 09:52:00
6:52 AM,51.1,48.9,92,30.28,10.0,Calm,Calm,-,N/A,,Clear,0,2013-08-17 10:52:00
7:52 AM,55.9,52.0,87,30.29,10.0,Calm,Calm,-,N/A,,Clear,0,2013-08-17 11:52:00
8:52 AM,63.0,55.0,75,30.30,10.0,Calm,Calm,-,N/A,,Clear,0,2013-08-17 12:52:00
9:52 AM,70.0,57.0,63,30.29,10.0,North,3.5,-,N/A,,Clear,360,2013-08-17 13:52:00
10:52 AM,73.0,55.9,55,30.29,10.0,Calm,Calm,-,N/A,,Clear,0,2013-08-17 14:52:00
11:52 AM,75.9,55.0,48,30.29,10.0,Calm,Calm,-,N/A,,Clear,0,2013-08-17 15:52:00
12:52 PM,77.0,50.0,39,30.27,10.0,Variable,3.5,-,N/A,,Scattered Clouds,0,2013-08-17 16:52:00
1:52 PM,79.0,50.0,36,30.26,10.0,WNW,5.8,-,N/A,,Clear,300,2013-08-17 17:52:00
2:52 PM,80.1,48.0,32,30.25,10.0,SSW,5.8,-,N/A,,Clear,210,2013-08-17 18:52:00
3:52 PM,79.0,48.0,34,30.25,10.0,Variable,3.5,-,N/A,,Mostly Cloudy,0,2013-08-17 19:52:00
4:52 PM,79.0,52.0,39,30.24,10.0,Calm,Calm,-,N/A,,Partly Cloudy,0,2013-08-17 20:52:00
5:52 PM,77.0,51.1,40,30.25,10.0,West,3.5,-,N/A,,Clear,270,2013-08-17 21:52:00
6:52 PM,73.9,57.9,57,30.26,10.0,Calm,Calm,-,N/A,,Clear,0,2013-08-17 22:52:00
7:52 PM,68.0,60.1,76,30.26,10.0,Calm,Calm,-,N/A,,Clear,0,2013-08-17 23:52:00
8:52 PM,64.0,60.1,87,30.27,10.0,Calm,Calm,-,N/A,,Clear,0,2013-08-18 00:52:00
9:52 PM,61.0,59.0,93,30.27,10.0,Calm,Calm,-,N/A,,Clear,0,2013-08-18 01:52:00
10:52 PM,60.1,57.0,90,30.28,10.0,Calm,Calm,-,N/A,,Clear,0,2013-08-18 02:52:00
11:52 PM,60.1,57.9,93,30.29,10.0,Calm,Calm,-,N/A,,Scattered Clouds,0,2013-08-18 03:52:00